Hourly Weather Escaldes-Engordany

Today, 8 July, Wednesday

Time Temperature Precipitation Wind Pressure Humidity
00:00 +13°C° 0 mm 0 mps 641 mmHg 81%
01:00 +13°C° 0 mm 1 mps 640 mmHg 81%
02:00 +13°C° 0 mm 1 mps 640 mmHg 81%
03:00 +13°C° 0 mm 1 mps 640 mmHg 82%
04:00 +14°C° 0 mm 1 mps 640 mmHg 77%
05:00 +15°C° 0 mm 1 mps 641 mmHg 73%
06:00 +16°C° 0 mm 1 mps 641 mmHg 69%
07:00 +20°C° 0 mm 1 mps 642 mmHg 60%
08:00 +22°C° 0 mm 1 mps 643 mmHg 51%
09:00 +25°C° 0 mm 1 mps 644 mmHg 42%
10:00 +25°C° 0 mm 2 mps 644 mmHg 39%
11:00 +26°C° 0 mm 2 mps 645 mmHg 37%
12:00 +27°C° 0 mm 2 mps 645 mmHg 35%
13:00 +27°C° 0 mm 2 mps 644 mmHg 36%
14:00 +27°C° 0 mm 2 mps 644 mmHg 37%
15:00 +27°C° 0 mm 2 mps 644 mmHg 37%
16:00 +26°C° 0.2 mm 2 mps 643 mmHg 46%
17:00 +25°C° 0.2 mm 2 mps 643 mmHg 54%
18:00 +23°C° 0.2 mm 2 mps 643 mmHg 62%
19:00 +21°C° 0.2 mm 1 mps 642 mmHg 71%
20:00 +19°C° 0.2 mm 1 mps 642 mmHg 79%
21:00 +16°C° 0.2 mm 1 mps 641 mmHg 88%
22:00 +16°C° 0 mm 1 mps 641 mmHg 86%
23:00 +16°C° 0 mm 1 mps 641 mmHg 85%

Tomorrow, 9 July, Thursday

Time Temperature Precipitation Wind Pressure Humidity
00:00 +16°C° 0 mm 2 mps 641 mmHg 84%
01:00 +16°C° 0 mm 1 mps 641 mmHg 77%
02:00 +16°C° 0 mm 1 mps 641 mmHg 70%
03:00 +16°C° 0 mm 1 mps 641 mmHg 63%
04:00 +18°C° 0 mm 1 mps 641 mmHg 64%
05:00 +18°C° 0 mm 1 mps 641 mmHg 65%
06:00 +19°C° 0 mm 1 mps 642 mmHg 66%
07:00 +21°C° 0 mm 1 mps 643 mmHg 60%
08:00 +23°C° 0 mm 1 mps 643 mmHg 54%
09:00 +25°C° 0 mm 1 mps 644 mmHg 48%
10:00 +26°C° 0 mm 2 mps 645 mmHg 45%
11:00 +27°C° 0 mm 2 mps 645 mmHg 42%
12:00 +28°C° 0 mm 2 mps 645 mmHg 40%
13:00 +28°C° 0.4 mm 2 mps 645 mmHg 42%
14:00 +27°C° 0.4 mm 2 mps 644 mmHg 44%
15:00 +27°C° 0.4 mm 3 mps 644 mmHg 46%
16:00 +26°C° 0.8 mm 2 mps 643 mmHg 53%
17:00 +24°C° 0.8 mm 2 mps 642 mmHg 61%
18:00 +23°C° 0.8 mm 1 mps 642 mmHg 69%
19:00 +21°C° 0.6 mm 1 mps 642 mmHg 74%
20:00 +19°C° 0.6 mm 1 mps 641 mmHg 80%
21:00 +18°C° 0.6 mm 1 mps 641 mmHg 85%
22:00 +16°C° 0.2 mm 1 mps 641 mmHg 84%
23:00 +16°C° 0.2 mm 1 mps 641 mmHg 82%

Day after tomorrow, 10 July, Friday

Time Temperature Precipitation Wind Pressure Humidity
00:00 +16°C° 0.2 mm 1 mps 641 mmHg 81%
01:00 +16°C° 0 mm 1 mps 640 mmHg 79%
02:00 +15°C° 0 mm 1 mps 640 mmHg 78%
03:00 +15°C° 0 mm 1 mps 640 mmHg 77%
04:00 +16°C° 0.3 mm 1 mps 640 mmHg 79%
05:00 +16°C° 0.3 mm 1 mps 641 mmHg 80%
06:00 +18°C° 0.3 mm 1 mps 641 mmHg 82%
07:00 +20°C° 0.2 mm 1 mps 642 mmHg 75%
08:00 +21°C° 0.2 mm 1 mps 642 mmHg 69%
09:00 +23°C° 0.2 mm 2 mps 643 mmHg 62%
10:00 +23°C° 0.3 mm 2 mps 643 mmHg 58%
11:00 +24°C° 0.3 mm 2 mps 643 mmHg 55%
12:00 +25°C° 0.3 mm 2 mps 643 mmHg 52%
13:00 +24°C° 0.6 mm 2 mps 643 mmHg 56%
14:00 +23°C° 0.6 mm 2 mps 642 mmHg 60%
15:00 +23°C° 0.6 mm 2 mps 642 mmHg 64%
16:00 +21°C° 0.4 mm 2 mps 641 mmHg 69%
17:00 +21°C° 0.4 mm 1 mps 641 mmHg 73%
18:00 +20°C° 0.4 mm 1 mps 641 mmHg 78%
19:00 +19°C° 0.1 mm 1 mps 641 mmHg 82%
20:00 +18°C° 0.1 mm 1 mps 641 mmHg 87%
21:00 +15°C° 0.1 mm 1 mps 641 mmHg 92%
22:00 +15°C° 0.1 mm 1 mps 641 mmHg 93%
23:00 +15°C° 0.1 mm 1 mps 641 mmHg 93%

11 July, Saturday

Time Temperature Precipitation Wind Pressure Humidity
00:00 +15°C° 0.1 mm 1 mps 641 mmHg 94%
01:00 +14°C° 0 mm 1 mps 641 mmHg 94%
02:00 +14°C° 0 mm 1 mps 641 mmHg 94%
03:00 +14°C° 0 mm 1 mps 640 mmHg 95%
04:00 +14°C° 0 mm 1 mps 641 mmHg 93%
05:00 +15°C° 0 mm 1 mps 641 mmHg 92%
06:00 +15°C° 0 mm 1 mps 641 mmHg 91%
07:00 +16°C° 0 mm 1 mps 642 mmHg 86%
08:00 +19°C° 0 mm 1 mps 643 mmHg 80%
09:00 +20°C° 0 mm 1 mps 643 mmHg 75%
10:00 +21°C° 0.1 mm 1 mps 643 mmHg 71%
11:00 +22°C° 0.1 mm 1 mps 643 mmHg 68%
12:00 +23°C° 0.1 mm 2 mps 643 mmHg 65%
13:00 +22°C° 0.7 mm 1 mps 643 mmHg 68%
14:00 +22°C° 0.7 mm 1 mps 643 mmHg 71%
15:00 +21°C° 0.7 mm 1 mps 642 mmHg 74%
16:00 +21°C° 0.6 mm 1 mps 642 mmHg 78%
17:00 +20°C° 0.6 mm 1 mps 642 mmHg 81%
18:00 +19°C° 0.6 mm 1 mps 641 mmHg 85%
19:00 +18°C° 0.1 mm 1 mps 641 mmHg 87%
20:00 +15°C° 0.1 mm 0 mps 641 mmHg 90%
21:00 +14°C° 0.1 mm 0 mps 641 mmHg 93%
22:00 +14°C° 0 mm 0 mps 641 mmHg 94%
23:00 +15°C° 0 mm 1 mps 641 mmHg 94%

12 July, Sunday

Time Temperature Precipitation Wind Pressure Humidity
00:00 +14°C° 0 mm 1 mps 641 mmHg 95%
01:00 +14°C° 0 mm 1 mps 640 mmHg 95%
02:00 +14°C° 0 mm 1 mps 640 mmHg 94%
03:00 +14°C° 0 mm 1 mps 640 mmHg 94%
04:00 +15°C° 0 mm 1 mps 641 mmHg 91%
05:00 +16°C° 0 mm 1 mps 641 mmHg 88%
06:00 +15°C° 0 mm 0 mps 642 mmHg 85%
07:00 +19°C° 0 mm 1 mps 642 mmHg 78%
08:00 +21°C° 0 mm 1 mps 643 mmHg 71%
09:00 +23°C° 0 mm 1 mps 644 mmHg 64%
10:00 +23°C° 0.8 mm 1 mps 644 mmHg 63%
11:00 +24°C° 0.8 mm 1 mps 644 mmHg 62%
12:00 +25°C° 0.8 mm 1 mps 644 mmHg 61%
13:00 +24°C° 2 mm 1 mps 644 mmHg 63%
14:00 +24°C° 2 mm 1 mps 643 mmHg 64%
15:00 +24°C° 2 mm 1 mps 643 mmHg 65%
16:00 +22°C° 2.5 mm 1 mps 642 mmHg 71%
17:00 +19°C° 2.5 mm 2 mps 642 mmHg 77%
18:00 +18°C° 2.5 mm 2 mps 641 mmHg 84%
19:00 +17°C° 0.5 mm 2 mps 641 mmHg 83%
20:00 +16°C° 0.5 mm 1 mps 641 mmHg 82%
21:00 +15°C° 0.5 mm 1 mps 641 mmHg 81%
22:00 +14°C° 0.2 mm 1 mps 641 mmHg 82%
23:00 +14°C° 0.2 mm 1 mps 641 mmHg 83%

13 July, Monday

Time Temperature Precipitation Wind Pressure Humidity
00:00 +14°C° 0.2 mm 1 mps 641 mmHg 83%
01:00 +14°C° 0.1 mm 1 mps 641 mmHg 82%
02:00 +13°C° 0.1 mm 1 mps 641 mmHg 82%
03:00 +13°C° 0.1 mm 1 mps 641 mmHg 81%
04:00 +14°C° 0 mm 1 mps 641 mmHg 80%
05:00 +15°C° 0 mm 1 mps 642 mmHg 80%
06:00 +16°C° 0 mm 1 mps 642 mmHg 79%
07:00 +19°C° 0 mm 1 mps 643 mmHg 72%
08:00 +21°C° 0 mm 1 mps 644 mmHg 65%
09:00 +23°C° 0 mm 1 mps 645 mmHg 57%
10:00 +23°C° 0.7 mm 1 mps 645 mmHg 60%
11:00 +23°C° 0.7 mm 1 mps 645 mmHg 62%
12:00 +24°C° 0.7 mm 1 mps 645 mmHg 64%
13:00 +23°C° 1.4 mm 1 mps 644 mmHg 66%
14:00 +23°C° 1.4 mm 1 mps 644 mmHg 68%
15:00 +23°C° 1.4 mm 1 mps 643 mmHg 70%
16:00 +22°C° 0.7 mm 1 mps 643 mmHg 74%
17:00 +21°C° 0.7 mm 1 mps 643 mmHg 78%
18:00 +20°C° 0.7 mm 1 mps 642 mmHg 82%
19:00 +19°C° 0.1 mm 1 mps 642 mmHg 85%
20:00 +18°C° 0.1 mm 1 mps 642 mmHg 88%
21:00 +16°C° 0.1 mm 1 mps 642 mmHg 91%
22:00 +15°C° 0 mm 1 mps 642 mmHg 92%
23:00 +15°C° 0 mm 1 mps 642 mmHg 92%
Show more